AirNav   Air Wisconsin Airman Trainee
 
 363 users online  

M66 Alfred Schroeder Field Airport
Hillsboro, Kansas, USA

GOING TO HILLSBORO?


FAA INFORMATION EFFECTIVE 28 MARCH 2019

Location

FAA Identifier: M66
Lat/Long: 38-20-29.6550N / 097-12-49.9400W
38-20.494250N / 097-12.832333W
38.3415708 / -97.2138722
(estimated)
Elevation: 1434 ft. / 437.1 m (surveyed)
Variation: 07E (1985)
Time zone: UTC -5 (UTC -6 during Standard Time)
Zip code: 67063

Airport Operations

Airport use: Open to the public
Activation date: 01/1952
Control tower: no
ARTCC: KANSAS CITY CENTER
FSS: WICHITA FLIGHT SERVICE STATION
NOTAMs facility: ICT (NOTAM-D service available)
Attendance: UNATNDD
Wind indicator: yes
Segmented circle: no
Lights: ACTVT LIRL RY 17/35; PAPI RYS 17 & 35 - CTAF.
Beacon: white-green (lighted land airport)
Operates sunset to sunrise.

Airport Communications

CTAF: 122.9
WX AWOS-3PT at EWK (17 nm S): 123.875 (316-283-8789)

Nearby radio navigation aids

VOR radial/distance  VOR name  Freq  Var
HUTr055/39.8HUTCHINSON VOR/DME116.8004E
ICTr019/39.8WICHITA VORTAC113.8007E
SLNr144/39.9SALINA VORTAC117.1007E

 
NDB name  Hdg/Dist  Freq  Var  ID
HARVS008/12.239506ECA -.-. .-
NEWTON004/16.928106EEWK . .-- -.-
HERINGTON216/28.340706EHRU .... .-. ..-

Airport Services

Fuel available: 100LL
SELF-SVC 100LL FUEL AVBL 24 HRS WITH CREDIT CARD.
Parking: hangars and tiedowns
Airframe service: NONE
Powerplant service: NONE
Bottled oxygen: NONE
Bulk oxygen: NONE

Runway Information

Runway 17/35

Dimensions: 3229 x 44 ft. / 984 x 13 m
RY 17/35 TURNAROUND & RUNUP AREA ON APCH TO RY 35 EXTDD APRXLY 23 FT.
Surface: asphalt, in good condition
Runway edge lights: low intensity
Gradient: 0.6% UP N.
RUNWAY 17  RUNWAY 35
Latitude: 38-20.760000N38-20.228500N
Longitude: 097-12.818833W097-12.845833W
Elevation: 1434.0 ft.1416.0 ft.
Gradient: 0.6% UP
Traffic pattern: leftleft
Markings: numbers only, in fair conditionnumbers only, in fair condition
Visual slope indicator: 4-light PAPI on left (3.75 degrees glide path)4-light PAPI on left (3.75 degrees glide path)
Touchdown point: yes, no lightsyes, no lights
Obstructions: 15 ft. road, 702 ft. from runway, 33:1 slope to clear33 ft. trees, 1228 ft. from runway, 31:1 slope to clear
29 FT TREES 130 FT L & 129 FT R ARE INSIDE OF THE PRIMARY SFC BUT DO IMPACT THE TRANSITIONAL ZONE FOR THE APCH TO RY 35.

Helipad H1

Dimensions: 40 x 40 ft. / 12 x 12 m
Surface: unknown surface
Traffic pattern: leftleft
Markings: basic, in good condition
Obstructions: bldg, lighted

Airport Ownership and Management from official FAA records

Ownership: Publicly-owned
Owner: CITY OF HILLSBORO
118 EAST GRAND
HILLSBORO, KS 67063
Phone 620-947-3162
Manager: LARRY PAINE
118 EAST GRAND
HILLSBORO, KS 67063
Phone 620-947-3162
CITY ADMINISTRATOR.

Airport Operational Statistics

Aircraft based on the field: 7
Single engine airplanes: 7
    
Aircraft operations: avg 96/week *
50% transient general aviation
50% local general aviation
* for 12-month period ending 28 September 2016

Additional Remarks

ULTRALIGHT ACTIVITY INVOF ARPT.
PHONE AVBL 24 HRS IN PILOTS LOUNGE; (620) 947-8970.

Instrument Procedures

There are no published instrument procedures at M66.

Some nearby airports with instrument procedures:

47K - Moundridge Municipal Airport (16 nm SW)
KEWK - Newton City/County Airport (17 nm S)
KMPR - Mc Pherson Airport (22 nm W)
KHRU - Herington Regional Airport (28 nm NE)
K78 - Abilene Municipal Airport (34 nm N)
 
Loc | Ops | Rwys | IFR | FBO | Links
Com | Nav | Svcs | Stats | Notes

Kansas City Aviation Department
 
Area around M66 (Alfred Schroeder Field Airport)
 
Road maps at: MapQuest Bing Google
 
Aerial photo
WARNING: Photo may not be current or correct
Aerial photo of M66 (Alfred Schroeder Field Airport)
Do you have a better or more recent aerial photo of Alfred Schroeder Field Airport that you would like to share? If so, please send us your photo.

 
Sectional chart

 
Airport distance calculator
Flying to Alfred Schroeder Field Airport? Find the distance to fly.

From to M66

Sunrise and sunset
Times for 24-Apr-2019
 Local
(UTC-5)
 Zulu
(UTC)
Morning civil twilight06:1411:14
Sunrise06:4211:42
Sunset20:1201:12
Evening civil twilight20:4001:40

Current date and time
Zulu (UTC)  24-Apr-2019 06:29:04
Local (UTC-5)  24-Apr-2019 01:29:04
 
METAR
KEWK 
19nm S 
240556Z AUTO 04003KT 8SM FEW060 OVC085 09/08 A2998 RMK AO2 SLP150 T00940083 10111 20094 58016
KSLN 
33nm NW 
240553Z AUTO 14005KT 9SM CLR 09/08 A2999 RMK AO2 SLP156 60000 T00940083 10128 20094 401390094 56009
K1K1 
34nm S 
240615Z AUTO 00000KT 7SM BKN090 10/09 A2998 RMK AO2 T01000091
KHUT 
35nm SW 
240552Z AUTO 00000KT 7SM OVC095 10/09 A2997 RMK AO2 SLP142 T01000089 10122 20094 401390094 58011
KAAO 
35nm S 
240554Z AUTO 36004KT 8SM BKN090 10/09 A2996 RMK AO2 SLP146 T01000089 10128 20100 401330100 58018 TSNO
TAF
KSLN 
33nm NW 
240520Z 2406/2506 VRB03KT P6SM SCT080 FM241100 VRB03KT P6SM SCT110
KHUT 
35nm SW 
240520Z 2406/2506 VRB03KT P6SM VCSH SCT025 BKN100 FM241000 VRB03KT 4SM BR SCT030 TEMPO 2410/2413 1SM BR FM241300 VRB03KT P6SM SCT050 FM241500 VRB03KT P6SM SCT100 FM241800 VRB04KT P6SM SCT250
NOTAMs
Click for the latest NOTAMs
NOTAMs are issued by the DoD/FAA and will open in a separate window not controlled by AirNav.

 

 
 

FBO, Fuel Providers, and Aircraft Ground Support

  
 Business Name 
 
 Contact 
 
 Services / Description 
 
Fuel Prices
 
Comments
  
City of Hillsboro 620-947-3162
no information available

If you are affiliated with City of Hillsboro and would like to show here your services, contact info, web link, logo, and more, click here
100LL
SS $4.41 
 Updated 18-Apr-2019
 
   write
SS=Self service
Update Fuel Prices
 

Would you like to see your business listed on this page?

 If your business provides an interesting product or service to pilots, flight crews, aircraft, or users of the Alfred Schroeder Field Airport, you should consider listing it here.  To start the listing process, click on the button below
 
Add a business
 

Other Pages about Alfred Schroeder Field Airport

Update a link
 
Copyright © AirNav, LLC. All rights reserved. Privacy Policy  Contact